Location: Grand Lay
(47.3253°N, 0.9468°E)
Time: 22:11:12
(UTC+00:00)

IRS-1D - Pass Details

Date: 18 January 2026
Orbit: 737 x 810 km, 98.8° (Epoch: 17 February)

Event Time Altitude Azimuth Distance (km) Brightness Sun altitude
Rises 05:17:02 0° 13° (NNE) 3,336 6.9 -23.2°
Reaches altitude 10° 05:19:23 10° 13° (NNE) 2,405 6.1 -22.8°
Maximum altitude 05:24:43 83° 287° (WNW) 823 3.5 -21.9°
Drops below altitude 10° 05:30:01 10° 200° (SSW) 2,385 5.9 -21.0°
Sets 05:32:20 0° 199° (SSW) 3,306 6.7 -20.6°
